User: anonymous   Login
Location: Unspecified
(0.0000°N, 0.0000°E)
Time: 04:43:50
(UTC+00:00)
Language:

NO-84 - Orbit

View from above orbital plane
View from above orbital plane
View from above satellite
View from above satellite

Ground track
Ground track

The orbit data is extracted from the following two-line orbital elements,

1 40654U 15025D   18109.17802873  .00005524  00000-0  97522-4 0 02759
2 40654 054.9943 302.6712 0158215 320.2567 038.6955 15.39559591046753
Epoch (UTC): 19 April 2018 04:16:21
Eccentricity: 0.0158215
inclination: 54.9943°
perigee height: 339 km
apogee height: 555 km
right ascension of ascending node: 302.6712°
argument of perigee: 320.2567°
revolutions per day: 15.39559591
mean anomaly at epoch: 38.6955°
orbit number at epoch: 4675

The dashed part of the orbit path shows where the satellite is in the earth's shadow,  

DLR